[[{"header":{"parameterUnit":"m.s-1","parameterCategory":1,"la1":30.2991,"la2":30.254,"lo1":-89.0895,"lo2":-89.0444,"dy":0.0017,"dx":0.0017,"nx":28,"ny":28,"refTime":"2024-08-28T03:00:00:Z","depth":0,"parameterNumber":2,"parameterNumberName":"U-component_of_WINDS"},"data":[0,0,0,0,0,0,0,0,0,0,0,0,0,0,0,0,0,0,0,0,0,0,0,0,0,0,0,0,0,0,0,0,0,0,0,0,0,0,0,0,0,0,0,0,0,0,0,0,0,0,0,0,0,0,0,0,0,0,-2.0442,-2.0443,0,-2.0591,-2.0593,-2.0594,-2.0599,-2.0597,-2.0596,-2.0594,-2.0749,-2.0754,-2.076,0,0,0,0,0,0,0,0,0,0,0,0,0,-2.0164,-2.0169,-2.0442,-2.0444,-2.0445,-2.0591,-2.0593,-2.0595,-2.06,-2.0597,-2.0595,-2.0593,-2.0747,-2.0754,-2.0761,0,0,0,0,0,0,0,0,0,0,0,0,0,-2.0296,-2.0171,-2.0441,-2.0465,-2.0469,-2.059,-2.0593,-2.0595,-2.06,-2.0597,-2.0595,-2.0592,-2.0744,-2.0753,-2.0762,-2.087,0,0,-2.0788,-2.0792,0,0,0,0,0,0,0,0,-2.0289,-2.0306,-2.046,-2.0464,-2.0468,-2.0574,-2.0552,-2.0687,-2.0601,-2.055,-2.0594,-2.0591,-2.0693,-2.0706,-2.074,-2.0877,-2.0884,-2.0789,-2.0794,-2.0798,-2.08,0,0,0,0,0,0,0,-2.0279,-2.03,-2.0501,-2.0462,-2.0467,-2.047,-2.0485,-2.0577,-2.0635,-2.0555,-2.0555,-2.0573,-2.0694,-2.0731,-2.0743,-2.0886,-2.0789,-2.0796,-2.0802,-2.0805,-2.1121,-2.1124,0,0,0,0,0,0,-2.0265,-2.0292,-2.0496,-2.0505,-2.037,-2.0477,-2.0494,-2.0543,-2.0634,-2.0645,-2.0575,-2.0572,-2.0718,-2.0733,-2.0749,-2.0882,-2.0798,-2.0806,-2.0811,-2.1118,-2.1122,-2.1126,0,0,0,0,0,0,-2.0259,-2.0283,-2.049,-2.0399,-2.0426,-2.0484,-2.0539,-2.0547,-2.0584,-2.0649,-2.066,-2.0601,-2.0716,-2.0736,-2.084,-2.0887,-2.081,-2.0818,-2.1115,-2.1119,-2.1124,-2.1149,0,0,0,0,0,0,-2.0251,-2.0281,-2.0322,-2.04,-2.043,-2.0578,-2.0541,-2.0552,-2.0598,-2.0596,-2.0677,-2.0688,-2.0716,-2.0827,-2.0848,-2.0898,-2.0825,-2.111,-2.1117,-2.1122,-2.1144,-2.1154,-2.1162,0,0,0,0,0,-2.0241,-2.0323,-2.0324,-2.0348,-2.0482,-2.058,-2.0598,-2.0627,-2.0602,-2.0644,-2.0687,-2.0685,-2.0879,-2.0837,-2.0862,-2.0915,-2.1108,-2.1115,-2.1122,-2.114,-2.1152,-2.1162,0,0,0,0,0,0,-2.0249,-2.0334,-2.0335,-2.0445,-2.0505,-2.0581,-2.0634,-2.0639,-2.0708,-2.0704,-2.0738,-2.0756,-2.0859,-2.0898,-2.085,-2.1025,-2.0991,-2.1003,-2.0996,-2.1008,-2.1017,-2.1005,-2.0832,0,0,0,0,0,-2.0263,-2.0335,-2.0406,-2.0495,-2.0526,-2.0575,-2.0619,-2.0636,-2.0701,-2.0727,-2.0777,-2.084,-2.0915,-2.0964,-2.1037,-2.115,-2.1168,-2.1199,-2.1208,-2.1215,-2.1225,-2.1289,-2.1304,-2.1149,-2.1149,-2.1149,0,0,-2.0294,-2.0349,-2.0392,-2.0498,-2.0547,-2.0622,-2.0596,-2.0676,-2.0732,-2.0739,-2.0839,-2.0879,-2.0952,-2.1061,-2.1112,-2.1096,-2.1272,-2.1224,-2.123,-2.1236,-2.1298,-2.1313,-2.1326,-2.1154,-2.1153,-2.1152,0,0,-2.0387,-2.0436,-2.0516,-2.0566,-2.0641,-2.0674,-2.0693,-2.0769,-2.0795,-2.0897,-2.0904,-2.0972,-2.11,-2.1152,-2.1196,-2.1312,-2.1313,-2.1335,-2.1382,-2.1444,-2.1456,-2.1467,-2.1509,-2.1523,-2.1344,-2.1345,-2.1345,0,-2.0416,-2.0527,-2.0557,-2.0637,-2.0684,-2.0695,-2.0777,-2.0824,-2.0919,-2.0952,-2.0933,-2.1096,-2.1146,-2.1268,-2.1296,-2.1331,-2.1355,-2.1325,-2.1452,-2.1463,-2.1474,-2.1514,-2.1529,-2.1347,-2.1346,-2.1346,-2.1346,0,-2.0559,-2.0636,-2.0692,-2.0783,-2.0837,-2.0918,-2.0962,-2.1013,-2.1027,-2.1062,-2.1166,-2.1227,-2.1312,-2.1343,-2.1357,-2.1468,-2.1456,-2.1444,-2.141,-2.149,-2.1528,-2.1544,-2.135,-2.1349,-2.1348,-2.1348,0,0,-2.0659,-2.0767,-2.0787,-2.0829,-2.0914,-2.0975,-2.1057,-2.1141,-2.1184,-2.125,-2.132,-2.143,-2.142,-2.1469,-2.149,-2.1545,-2.1633,-2.1527,-2.1529,-2.1544,-2.176,-2.1767,-2.1784,-2.1635,-2.1638,-2.1641,-2.1753,0,-2.0761,-2.0906,-2.0937,-2.1063,-2.1135,-2.1148,-2.122,-2.128,-2.1316,-2.1383,-2.1423,-2.15,-2.1482,-2.1512,-2.1566,-2.1611,-2.1677,-2.1603,-2.1702,-2.1705,-2.1682,-2.1804,-2.1812,-2.1915,-2.1768,-2.1771,-2.1773,0,-2.0899,-2.0968,-2.1101,-2.1177,-2.1209,-2.1272,-2.1352,-2.1417,-2.1486,-2.1509,-2.1565,-2.158,-2.1668,-2.163,-2.1752,-2.1701,-2.1744,-2.1772,-2.1777,-2.1786,-2.1743,-2.1816,-2.1948,-2.1964,-2.1797,-2.1795,-2.1793,0,-2.0958,-2.1085,-2.1181,-2.1217,-2.1308,-2.1353,-2.1393,-2.146,-2.1509,-2.1579,-2.1612,-2.1692,-2.1735,-2.1798,-2.1835,-2.1804,-2.1954,-2.1919,-2.1975,-2.1974,-2.2005,-2.2002,-2.2145,-2.2034,-2.2034,-2.2033,-2.2033,0,-2.1069,-2.115,-2.1209,-2.1268,-2.136,-2.1396,-2.1486,-2.1526,-2.1586,-2.1654,-2.167,-2.1734,-2.1779,-2.185,-2.188,-2.1976,-2.1996,-2.2017,-2.2024,-2.2015,-2.2013,-2.2043,-2.2036,-2.2038,-2.2037,-2.2036,-2.2035,0,-2.115,-2.1193,-2.1299,-2.1377,-2.1399,-2.1463,-2.153,-2.1589,-2.1626,-2.1712,-2.1734,-2.1792,-2.1876,-2.192,-2.2025,-2.2045,-2.2154,-2.2157,-2.213,-2.2133,-2.2186,-2.218,-2.2352,-2.2377,-2.225,-2.2251,-2.2252,0,-2.1217,-2.1279,-2.1364,-2.1411,-2.1452,-2.1527,-2.1577,-2.1616,-2.1667,-2.1752,-2.1801,-2.1886,-2.1956,-2.209,-2.2142,-2.2223,-2.2228,-2.2283,-2.224,-2.223,-2.2229,-2.2224,-2.2231,-2.229,-2.2291,-2.2292,-2.2293,0,-2.1331,-2.135,-2.1421,-2.15,-2.156,-2.1624,-2.1688,-2.1726,-2.1775,-2.1833,-2.1919,-2.1973,-2.2081,-2.2165,-2.2251,-2.2293,-2.2302,-2.2306,-2.2323,-2.2314,-2.2296,-2.2307,-2.215,-2.2302,-2.2301,-2.23,-2.23,-2.2299,-2.1407,-2.1463,-2.1532,-2.1612,-2.1664,-2.1724,-2.1783,-2.1828,-2.19,-2.199,-2.2009,-2.21,-2.217,-2.2286,-2.2331,-2.2404,-2.2393,-2.2418,-2.2424,-2.2429,-2.2431,-2.2286,-2.242,-2.242,-2.242,-2.2419,-2.2419,0,-2.1522,-2.1567,-2.164,-2.1729,-2.1792,-2.1794,-2.1866,-2.1918,-2.1998,-2.2062,-2.2131,-2.2231,-2.2314,-2.2373,-2.2458,-2.2505,-2.2511,-2.2525,-2.2522,-2.2532,-2.2437,-2.2413,-2.2519,-2.2519,-2.2519,-2.2519,-2.2519,-2.2519,-2.1588,-2.1684,-2.1712,-2.1834,-2.188,-2.1969,-2.2009,-2.2065,-2.2117,-2.2227,-2.2296,-2.2334,-2.2397,-2.2487,-2.2563,-2.2579,-2.2609,-2.2623,-2.2639,-2.2549,-2.2538,-2.2528,-2.2506,-2.263,-2.263,-2.2728,-2.2729,-2.2729]},{"header":{"parameterUnit":"m.s-1","parameterCategory":1,"la1":30.2991,"la2":30.254,"lo1":-89.0895,"lo2":-89.0444,"dy":0.0017,"dx":0.0017,"nx":28,"ny":28,"refTime":"2024-08-28T03:00:00:Z","depth":0,"parameterNumber":3,"parameterNumberName":"V-component_of_WINDS"},"data":[0,0,0,0,0,0,0,0,0,0,0,0,0,0,0,0,0,0,0,0,0,0,0,0,0,0,0,0,0,0,0,0,0,0,0,0,0,0,0,0,0,0,0,0,0,0,0,0,0,0,0,0,0,0,0,0,0,0,-0.3902,-0.3902,0,-0.3909,-0.3909,-0.3909,-0.3927,-0.3927,-0.3927,-0.3928,-0.3934,-0.3934,-0.3934,0,0,0,0,0,0,0,0,0,0,0,0,0,-0.3904,-0.3903,-0.3902,-0.3902,-0.3903,-0.3909,-0.3909,-0.3909,-0.3927,-0.3927,-0.3927,-0.3928,-0.3934,-0.3934,-0.3934,0,0,0,0,0,0,0,0,0,0,0,0,0,-0.3906,-0.3903,-0.3902,-0.3912,-0.3913,-0.3909,-0.3909,-0.3909,-0.3926,-0.3927,-0.3928,-0.3928,-0.3935,-0.3934,-0.3934,-0.3922,0,0,-0.3933,-0.3933,0,0,0,0,0,0,0,0,-0.3906,-0.3906,-0.391,-0.3911,-0.3912,-0.3918,-0.3912,-0.3914,-0.3926,-0.3921,-0.3928,-0.3928,-0.3928,-0.3929,-0.3929,-0.3922,-0.3922,-0.3933,-0.3933,-0.3933,-0.3933,0,0,0,0,0,0,0,-0.3906,-0.3906,-0.3905,-0.391,-0.3912,-0.3916,-0.3917,-0.3913,-0.3922,-0.3922,-0.3923,-0.3924,-0.3929,-0.3929,-0.3929,-0.3922,-0.3933,-0.3933,-0.3933,-0.3933,-0.3906,-0.3905,0,0,0,0,0,0,-0.3904,-0.3905,-0.3905,-0.3905,-0.391,-0.3915,-0.3916,-0.3915,-0.3922,-0.3923,-0.3923,-0.3924,-0.3929,-0.3929,-0.3929,-0.3915,-0.3933,-0.3933,-0.3933,-0.3906,-0.3905,-0.3905,0,0,0,0,0,0,-0.3904,-0.3904,-0.3905,-0.3906,-0.3906,-0.3915,-0.3913,-0.3915,-0.3915,-0.3923,-0.3924,-0.3921,-0.393,-0.393,-0.3923,-0.3916,-0.3933,-0.3933,-0.3907,-0.3906,-0.3905,-0.3887,0,0,0,0,0,0,-0.3904,-0.3904,-0.3899,-0.3906,-0.3906,-0.3899,-0.3913,-0.3915,-0.3915,-0.3916,-0.3922,-0.3923,-0.393,-0.3924,-0.3923,-0.3916,-0.3932,-0.3908,-0.3906,-0.3905,-0.3888,-0.3885,-0.3883,0,0,0,0,0,-0.3904,-0.3894,-0.3899,-0.3899,-0.3901,-0.3898,-0.3899,-0.3907,-0.3914,-0.391,-0.3914,-0.3923,-0.3917,-0.3923,-0.3923,-0.3915,-0.3908,-0.3907,-0.3906,-0.3889,-0.3886,-0.3883,0,0,0,0,0,0,-0.3887,-0.3895,-0.3901,-0.3892,-0.3894,-0.3901,-0.3896,-0.3903,-0.3903,-0.3905,-0.3915,-0.3916,-0.3908,-0.3911,-0.3918,-0.3903,-0.3914,-0.3912,-0.3902,-0.3898,-0.3896,-0.3895,-0.3932,0,0,0,0,0,-0.3882,-0.3879,-0.3887,-0.3879,-0.3879,-0.3887,-0.3887,-0.3893,-0.3895,-0.3896,-0.3901,-0.3903,-0.3901,-0.39,-0.3899,-0.3889,-0.389,-0.3883,-0.388,-0.3878,-0.3877,-0.3871,-0.3868,-0.3901,-0.3901,-0.3901,0,0,-0.3872,-0.3876,-0.3874,-0.3875,-0.3878,-0.3875,-0.3888,-0.3884,-0.3882,-0.3896,-0.389,-0.3893,-0.3896,-0.3888,-0.3884,-0.389,-0.3868,-0.3877,-0.3875,-0.3875,-0.387,-0.3867,-0.3864,-0.39,-0.39,-0.39,0,0,-0.3852,-0.3855,-0.3849,-0.3851,-0.3854,-0.386,-0.3858,-0.3863,-0.3866,-0.3861,-0.3871,-0.3868,-0.3865,-0.3867,-0.3867,-0.3848,-0.3855,-0.3847,-0.3834,-0.3828,-0.3826,-0.3824,-0.3817,-0.3814,-0.3846,-0.3846,-0.3846,0,-0.384,-0.3836,-0.3845,-0.384,-0.384,-0.3852,-0.3846,-0.3847,-0.385,-0.385,-0.3856,-0.3852,-0.3855,-0.3847,-0.3842,-0.3842,-0.3841,-0.3847,-0.3825,-0.3823,-0.3821,-0.3815,-0.3812,-0.3845,-0.3845,-0.3845,-0.3845,0,-0.382,-0.3817,-0.3811,-0.3813,-0.3813,-0.3807,-0.3815,-0.3814,-0.3819,-0.3824,-0.3818,-0.3822,-0.3822,-0.382,-0.3826,-0.3813,-0.3816,-0.3824,-0.3835,-0.3817,-0.3811,-0.3809,-0.3843,-0.3843,-0.3844,-0.3844,0,0,-0.379,-0.3797,-0.3795,-0.3796,-0.38,-0.3798,-0.3793,-0.3793,-0.3791,-0.3792,-0.3788,-0.3785,-0.3792,-0.3793,-0.3799,-0.3794,-0.3778,-0.3802,-0.3802,-0.3797,-0.3763,-0.3758,-0.3755,-0.3783,-0.3782,-0.3782,-0.3763,0,-0.3771,-0.3763,-0.3771,-0.3761,-0.3758,-0.3769,-0.3765,-0.3767,-0.3771,-0.3769,-0.3773,-0.3771,-0.378,-0.3781,-0.3776,-0.3781,-0.3771,-0.3782,-0.3779,-0.3779,-0.3778,-0.3752,-0.3746,-0.3728,-0.3761,-0.376,-0.376,0,-0.3749,-0.3749,-0.3739,-0.3744,-0.3743,-0.3739,-0.3739,-0.3737,-0.3739,-0.3743,-0.3743,-0.375,-0.3745,-0.3756,-0.3749,-0.3756,-0.3755,-0.3757,-0.3757,-0.3757,-0.3769,-0.3751,-0.3722,-0.3719,-0.3757,-0.3757,-0.3757,0,-0.3728,-0.3726,-0.3719,-0.372,-0.3725,-0.3722,-0.3724,-0.3727,-0.3726,-0.3727,-0.3726,-0.3726,-0.3726,-0.3725,-0.3732,-0.3739,-0.3724,-0.3735,-0.3726,-0.3726,-0.3723,-0.3723,-0.3694,-0.3722,-0.3722,-0.3722,-0.3722,0,-0.3706,-0.37,-0.371,-0.3706,-0.3699,-0.3708,-0.37,-0.3703,-0.3706,-0.3702,-0.3712,-0.3709,-0.3718,-0.3715,-0.3721,-0.3714,-0.3714,-0.3716,-0.3718,-0.3716,-0.3715,-0.3715,-0.3717,-0.3722,-0.3722,-0.3722,-0.3722,0,-0.3682,-0.3688,-0.3682,-0.3688,-0.3689,-0.3683,-0.3688,-0.3685,-0.3689,-0.3685,-0.3684,-0.3691,-0.3689,-0.3696,-0.3694,-0.3698,-0.3688,-0.3692,-0.3687,-0.3689,-0.3679,-0.368,-0.3649,-0.3645,-0.3676,-0.3676,-0.3675,0,-0.3668,-0.3663,-0.3668,-0.3667,-0.3668,-0.3666,-0.3665,-0.3673,-0.3672,-0.3674,-0.367,-0.3669,-0.3668,-0.3663,-0.3668,-0.3667,-0.3671,-0.366,-0.3671,-0.3669,-0.3671,-0.3671,-0.367,-0.3658,-0.3657,-0.3657,-0.3657,0,-0.3642,-0.3646,-0.3644,-0.3644,-0.3643,-0.3643,-0.3644,-0.3642,-0.3651,-0.3649,-0.3647,-0.3646,-0.3645,-0.3643,-0.3643,-0.3645,-0.3652,-0.3653,-0.3651,-0.3649,-0.3647,-0.3648,-0.3681,-0.3654,-0.3654,-0.3655,-0.3655,-0.3655,-0.3623,-0.3619,-0.3621,-0.362,-0.3621,-0.3622,-0.3619,-0.3623,-0.3621,-0.362,-0.3625,-0.3622,-0.3624,-0.3625,-0.3626,-0.3623,-0.3628,-0.3625,-0.3624,-0.3624,-0.3622,-0.3647,-0.3623,-0.3623,-0.3623,-0.3623,-0.3623,0,-0.3597,-0.36,-0.3598,-0.3599,-0.3597,-0.3604,-0.3605,-0.3604,-0.3601,-0.3602,-0.3601,-0.3598,-0.3596,-0.3601,-0.36,-0.3597,-0.36,-0.3596,-0.3597,-0.3597,-0.3618,-0.362,-0.3594,-0.3594,-0.3594,-0.3594,-0.3594,-0.3594,-0.3584,-0.3578,-0.3581,-0.3576,-0.3578,-0.3575,-0.3575,-0.3576,-0.3577,-0.3573,-0.3572,-0.3575,-0.3578,-0.3577,-0.3575,-0.3577,-0.3576,-0.3571,-0.3573,-0.3593,-0.3595,-0.3598,-0.36,-0.357,-0.357,-0.3553,-0.3553,-0.3552]}]]